Regional Weather Roundup
Issued by NWS

Home | Current Version | Previous Version | Graphics & Text | Print | Product List | Glossary On
Versions: 1 2 3 4 5 6 7 8 9 10 11 12 13 14 15 16 17 18 19 20 21 22 23 24 25 26 27 28 29 30 31 32 33 34 35 36 37 38 39 40 41 42 43 44 45 46 47 48 49 50
000
ASUS45 KTFX 162119
RWRMT
MONTANA HOURLY WEATHER ROUNDUP
NATIONAL WEATHER SERVICE GREAT FALLS MT
319 PM MDT WED APR 16 2014

NOTE: "FAIR" INDICATES FEW OR NO CLOUDS BELOW 12000 FEET WITH NO
SIGNIFICANT WEATHER AND/OR OBSTRUCTIONS TO VISIBILITY.

* THESE STATIONS ARE NOT UNDER NWS QUALITY CONTROL. THEY DO NOT
   REPORT WEATHER SUCH AS PRECIPITATION OR FOG.

MTZ001>007-043-162200-
WEST OF THE DIVIDE
CITY           SKY/WX    TMP DP  RH WIND       PRES   REMARKS
KALISPELL      CLOUDY    50  27  41 SW9       29.96S
MISSOULA       CLOUDY    48  28  46 CALM      30.02F
BUTTE          CLOUDY    43  16  34 CALM      29.97F
MULLAN PASS    LGT SNOW  30  28  92 VRB6      29.97S VSB 3    WCI  24
* ESSEX        N/A       39  31  73 SE2        N/A
* LINCOLN      N/A       43  27  53 W5G12      N/A
* LOOKOUT PASS N/A       38  32  79 S5         N/A   WCI  34
* PLAINS APT   CLOUDY    52  32  47 CALM      30.01F
* POLSON       N/A       47  28  48 SW4G10     N/A
* RONAN APT    CLOUDY    46  28  50 S8         N/A
* SEELEY LAKE  N/A       43  28  56 W6G13      N/A
* THOMP F APT  CLOUDY    46  13  26 S14G23     N/A
$$

MTZ008-052>055-162200-
SOUTHWEST MONTANA
CITY           SKY/WX    TMP DP  RH WIND       PRES   REMARKS
BOZEMAN        CLOUDY    46  23  40 N10G20    29.97S
DILLON         CLOUDY    46  10  23 NW5       29.95F
W YELLOWSTONE  N/A       48  16  28 W4G12      N/A
* THREE FORKS  CLOUDY    50  18  28 W14G21     N/A
* BOULDER HILL N/A       37  21  52 NE5G11     N/A   WCI  33
* MONIDA PASS  N/A       43   7  22 S2G11      N/A
* RAYNOLDS PAS N/A       41  30  65 SW5G11     N/A
* WHITEHALL    N/A       53  19  26 S4G22      N/A
* WISE RIVER   N/A       44  11  26 NW12G19    N/A
$$

MTZ009>010-012-014-046-048-049-054-162200-
EAST SLOPES AND CENTRAL MONTANA
CITY           SKY/WX    TMP DP  RH WIND       PRES   REMARKS
CUT BANK       CLOUDY    34  30  85 E7        29.99F WCI  28
GREAT FALLS    CLOUDY    45  28  51 W5        29.97S
HELENA         CLOUDY    52  23  32 W15G25    29.96S
MALMSTROM AFB  CLOUDY    45  32  60 N10       29.96S
* CONRAD       PTSUNNY   39  36  89 N/A        N/A
* DEARBORN     N/A       43  33  68 NW4        N/A
* EAST GLACIER N/A       28  24  85 SE5        N/A   WCI  22
* MONARCH      N/A       32  27  82 SW4        N/A
* PENDROY      N/A       34  31  89 N7         N/A   WCI  28
* ROGERS PASS  N/A       40  19  43 SE6G17     N/A   WCI  36
* SAINT MARY   N/A       43  30  60 NW4        N/A
* SWEET GRASS  N/A       32  32 100 E4         N/A
* WHITE SULPH  N/A       43  23  45 SW7G15     N/A
$$

MTZ011-013-016-021-035-040-045-047-050-051-162200-
NORTH CENTRAL MONTANA
CITY           SKY/WX    TMP DP  RH WIND       PRES   REMARKS
HAVRE          CLOUDY    43  28  56 E6        30.03F
LEWISTOWN      CLOUDY    43  27  53 W9        29.97S
* CHINOOK      CLOUDY    45  25  45 E8        30.05F
* FORT BENTON  CLOUDY    46  32  58 E6        30.02S
* MALTA APT    PTSUNNY   43  21  42 E9        30.05R
* CHESTER      N/A       34  31  89 NE5G10     N/A   WCI  29
* DENTON       N/A       43  28  56 N9         N/A
* GEYSER       N/A       42  27  55 NW7G12     N/A
* JUDITH GAP   N/A       36  34  92 N9         N/A   WCI  29
* LOMA         N/A       43  30  60 E8G13      N/A
$$

MTZ017>020-022>027-061-062-162200-
NORTHEAST MONTANA
CITY           SKY/WX    TMP DP  RH WIND       PRES   REMARKS
GLASGOW        CLOUDY    36  21  54 E10       30.12R WCI  29
GLENDIVE       CLOUDY    32  21  64 E8        30.13R WCI  25
JORDAN         PTSUNNY   39  21  48 E8        30.07S WCI  33
SIDNEY         CLOUDY    32  19  59 NE7       30.18R WCI  25
WOLF POINT     CLOUDY    34  19  54 E12       30.16S WCI  25
* BEAVER HILL  N/A       29  20  69 NE9        N/A   WCI  21
* CIRCLE       N/A       33  24  70 E8         N/A   WCI  26
* LINDSAY DVD  N/A       30  20  66 E8         N/A   WCI  22
* NAVAJO       N/A       27  18  69 SE8G15     N/A   WCI  19
* SACO         N/A       38  21  50 NE7G16     N/A   WCI  33
$$

MTZ028>042-056>058-162200-
SOUTHCENTRAL AND SOUTHEAST MONTANA
CITY           SKY/WX    TMP DP  RH WIND       PRES   REMARKS
BAKER          PTSUNNY   37  21  52 E12       30.07R WCI  29
BILLINGS       PTSUNNY   43  32  65 E9        29.99F
LIVINGSTON     CLOUDY    48  21  34 W13       29.96S
MILES CITY     CLOUDY    37  25  62 NE7       30.07S WCI  32
* EKALAKA APT  PTSUNNY   41  21  45 CALM      30.00R
* LAUREL APT   PTCLDY    43  30  60 NE7        N/A
* ROUNDUP APT  PTCLDY    43  27  53 N/A        N/A
* HYSHAM       N/A       42  24  49 E2G11      N/A
* LAME DEER    N/A       38  26  62 VRB9       N/A   WCI  32
* REED POINT   N/A       50  22  33 W20        N/A
* ROSCOE HILL  N/A       48   6  18 NW7G13     N/A
$$

REGIONAL REPORTS...DAKOTAS
CITY           SKY/WX    TMP DP  RH WIND       PRES   REMARKS
WILLISTON      LGT SNOW  28  21  75 E17       30.20R WCI  16
DICKINSON      CLOUDY    28  21  75 NE10      30.10R WCI  19
CROSBY         N/A       27  23  85 E14       30.24R WCI  16
TIOGA          CLOUDY    25  25 100 E13       30.22R WCI  13
WATFORD CITY   CLOUDY    27  19  72 E10       30.17R WCI  18
BISMARCK       CLOUDY    34  18  52 NE14      30.15R WCI  24
GRAND FORKS    SUNNY     41  14  33 NE18G28   30.12R
FARGO          CLOUDY    36  23  59 NE16      30.10R WCI  26
BUFFALO SD     PTCLDY    36  23  59 E17G28    30.00R WCI  26
RAPID CITY     PTSUNNY   46  28  50 N16G22    30.00R
$$

REGIONAL REPORTS...WYOMING/IDAHO/WASHINGTON
CITY           SKY/WX    TMP DP  RH WIND       PRES   REMARKS
GILLETTE       PTCLDY    46  25  44 N15       29.97R
SHERIDAN       CLOUDY    39  30  70 SW12      29.99R WCI  32
CODY           CLOUDY    45  25  45 NE9       29.94F
YELLOWSTONE LA PTSUNNY   32  16  52 VRB5      30.00R WCI  27
SALMON         PTCLDY    54  16  22 NW6       29.95F
MULLAN PASS    LGT SNOW  30  28  92 VRB6      29.97S VSB 3    WCI  24
SAND POINT     N/A       46  39  77 S8        30.02S
SPOKANE        CLOUDY    48  39  71 SW15      30.01F
$$

REGIONAL REPORTS...ALBERTA
CITY           SKY/WX    TMP DP  RH WIND       PRES   REMARKS
CALGARY        LGT SNOW  30  27  89 SE13      29.99S WCI  20
LETHBRIDGE     CLOUDY    32  28  85 SE8       30.02F WCI  25
MEDICINE HAT   PTSUNNY   41  25  53 CALM      30.06F
EDMONTON       PTSUNNY   34  19  54 SE15      30.06F WCI  24
WATERTON GATE  N/A       34  28  79 NE9        N/A   WCI  27
CARDSTON       N/A       37  30  76 SE10       N/A   WCI  30
MILK RIVER     N/A       32  28  85 E8         N/A   WCI  25
$$

REGIONAL REPORTS...SASKATCHEWAN
CITY           SKY/WX    TMP DP  RH WIND       PRES   REMARKS
SWIFT CURRENT  LGT SNOW  28  23  81 SE16      30.13R WCI  16
MOOSE JAW      CLOUDY    28  16  61 SE15      30.24S WCI  16
REGINA         LGT SNOW  30  18  61 SE13      30.25S WCI  20
VAL MARIE      N/A       36  21  54 SE7        N/A   WCI  30
ASSINIBOIA     N/A       28  18  66 E13        N/A   WCI  17
CORONACH       N/A       28  18  66 E10        N/A   WCI  19

$$




USA.gov is the U.S. government's official web portal to all federal, state and local government web resources and services.